JAL319 RJTT-RJFF

Flight info

Callsign JAL319
Flight time 1h 44m
Altitude 36000
Route GUSRO Y20 KIRIN
Aircraft A359/H-SDE2E3GHIJ1J3J4J5LM1ORWXYZ/LB1D1

Departure

Time 2026-05-07 11:46
Airport Tokyo Haneda International Airport (RJTT)

Arrival

Time 2026-05-07 13:30
Airport Fukuoka Airport (RJFF)
Time Latitude Longitude Altitude Speed Heading
2026-05-07 11:18 35.54960 139.78228 30 ft 0 kts 61°
2026-05-07 11:34 35.54952 139.78209 29 ft 4 kts 61°
2026-05-07 11:34 35.54938 139.78180 27 ft 4 kts 61°
2026-05-07 11:35 35.54925 139.78151 26 ft 4 kts 61°
2026-05-07 11:35 35.54912 139.78123 26 ft 3 kts 60°
2026-05-07 11:35 35.54902 139.78102 27 ft 4 kts 41°
2026-05-07 11:35 35.54887 139.78090 28 ft 4 kts 358°
2026-05-07 11:36 35.54866 139.78096 27 ft 4 kts 336°
2026-05-07 11:36 35.54842 139.78110 27 ft 4 kts 330°
2026-05-07 11:36 35.54831 139.78118 28 ft 4 kts 330°
2026-05-07 11:39 35.54836 139.78114 29 ft 3 kts 330°
2026-05-07 11:40 35.54865 139.78094 29 ft 7 kts 330°
2026-05-07 11:40 35.54910 139.78051 29 ft 9 kts 304°
2026-05-07 11:40 35.54913 139.77969 27 ft 11 kts 278°
2026-05-07 11:40 35.54961 139.77900 28 ft 12 kts 324°
2026-05-07 11:41 35.55035 139.77844 28 ft 14 kts 329°
2026-05-07 11:41 35.55124 139.77780 28 ft 16 kts 330°
2026-05-07 11:41 35.55227 139.77708 28 ft 18 kts 330°
2026-05-07 11:41 35.55340 139.77628 28 ft 19 kts 329°
2026-05-07 11:42 35.55448 139.77551 29 ft 19 kts 330°
2026-05-07 11:42 35.55547 139.77481 29 ft 17 kts 330°
2026-05-07 11:42 35.55646 139.77411 28 ft 16 kts 330°
2026-05-07 11:42 35.55723 139.77356 28 ft 10 kts 330°
2026-05-07 11:43 35.55751 139.77288 27 ft 8 kts 266°
2026-05-07 11:43 35.55735 139.77255 27 ft 0 kts 226°
2026-05-07 11:44 35.55730 139.77249 28 ft 4 kts 225°
2026-05-07 11:44 35.55691 139.77210 29 ft 8 kts 217°
2026-05-07 11:44 35.55643 139.77179 31 ft 7 kts 191°
2026-05-07 11:44 35.55590 139.77199 31 ft 9 kts 154°
2026-05-07 11:45 35.55516 139.77250 30 ft 22 kts 150°
2026-05-07 11:45 35.55165 139.77498 28 ft 95 kts 150°
2026-05-07 11:45 35.54408 139.78029 38 ft 156 kts 153°
2026-05-07 11:45 35.53411 139.78789 577 ft 170 kts 151°
2026-05-07 11:46 35.52394 139.79541 1427 ft 172 kts 154°
2026-05-07 11:46 35.51351 139.80303 1963 ft 179 kts 156°
2026-05-07 11:46 35.50207 139.81093 2201 ft 198 kts 157°
2026-05-07 11:46 35.48902 139.81910 2383 ft 222 kts 165°
2026-05-07 11:47 35.47343 139.82060 2617 ft 233 kts 199°
2026-05-07 11:47 35.45998 139.80982 3203 ft 236 kts 230°
2026-05-07 11:47 35.45272 139.79200 3899 ft 241 kts 256°
2026-05-07 11:47 35.45335 139.77122 4583 ft 252 kts 281°
2026-05-07 11:48 35.45985 139.75093 5263 ft 258 kts 291°
2026-05-07 11:48 35.46761 139.73096 5926 ft 261 kts 292°
2026-05-07 11:48 35.47559 139.71076 6534 ft 265 kts 292°
2026-05-07 11:48 35.48360 139.69032 7158 ft 265 kts 292°
2026-05-07 11:49 35.49139 139.66971 7799 ft 267 kts 290°
2026-05-07 11:49 35.49860 139.64858 8400 ft 270 kts 289°
2026-05-07 11:49 35.50567 139.62733 9071 ft 271 kts 289°
2026-05-07 11:49 35.51276 139.60575 9726 ft 273 kts 289°
2026-05-07 11:50 35.51986 139.58394 10267 ft 279 kts 289°
2026-05-07 11:50 35.52720 139.56120 10548 ft 293 kts 289°
2026-05-07 11:50 35.53489 139.53726 10803 ft 307 kts 289°
2026-05-07 11:50 35.54288 139.51230 11042 ft 320 kts 288°
2026-05-07 11:51 35.55113 139.48632 11282 ft 332 kts 288°
2026-05-07 11:51 35.55962 139.45959 11636 ft 339 kts 288°
2026-05-07 11:51 35.56816 139.43286 12083 ft 342 kts 288°
2026-05-07 11:51 35.57691 139.40552 12555 ft 345 kts 288°
2026-05-07 11:52 35.58569 139.37807 13023 ft 347 kts 288°
2026-05-07 11:52 35.59458 139.35025 13501 ft 349 kts 288°
2026-05-07 11:52 35.60349 139.32238 13938 ft 351 kts 288°
2026-05-07 11:52 35.61246 139.29425 14344 ft 354 kts 288°
2026-05-07 11:53 35.62151 139.26589 14772 ft 356 kts 289°
2026-05-07 11:53 35.63049 139.23784 15133 ft 359 kts 289°
2026-05-07 11:53 35.63965 139.20908 15532 ft 361 kts 289°
2026-05-07 11:53 35.64880 139.18018 15922 ft 364 kts 288°
2026-05-07 11:54 35.65744 139.15073 16319 ft 365 kts 284°
2026-05-07 11:54 35.66160 139.12003 16752 ft 364 kts 272°
2026-05-07 11:54 35.66223 139.08885 17151 ft 366 kts 268°
2026-05-07 11:54 35.66120 139.05740 17519 ft 369 kts 265°
2026-05-07 11:55 35.65937 139.02595 17969 ft 370 kts 264°
2026-05-07 11:55 35.65734 138.99468 18358 ft 372 kts 264°
2026-05-07 11:55 35.65534 138.96284 18712 ft 375 kts 265°
2026-05-07 11:55 35.65351 138.93069 19060 ft 377 kts 265°
2026-05-07 11:56 35.65181 138.89851 19444 ft 378 kts 265°
2026-05-07 11:56 35.65023 138.86618 19785 ft 380 kts 265°
2026-05-07 11:56 35.64874 138.83354 20089 ft 384 kts 265°
2026-05-07 11:56 35.64722 138.80066 20487 ft 385 kts 265°
2026-05-07 11:57 35.64573 138.76779 20843 ft 386 kts 265°
2026-05-07 11:57 35.64422 138.73501 21161 ft 389 kts 265°
2026-05-07 11:57 35.64269 138.70173 21511 ft 390 kts 265°
2026-05-07 11:57 35.64114 138.66834 21866 ft 391 kts 265°
2026-05-07 11:58 35.63951 138.63482 22207 ft 393 kts 265°
2026-05-07 11:58 35.63778 138.60120 22536 ft 395 kts 265°
2026-05-07 11:58 35.63601 138.56743 22851 ft 397 kts 265°
2026-05-07 11:58 35.63421 138.53346 23138 ft 399 kts 264°
2026-05-07 11:59 35.63241 138.49973 23439 ft 401 kts 265°
2026-05-07 11:59 35.63057 138.46529 23697 ft 403 kts 264°
2026-05-07 11:59 35.62873 138.43075 23951 ft 405 kts 264°
2026-05-07 11:59 35.62686 138.39605 24220 ft 406 kts 264°
2026-05-07 12:00 35.62497 138.36131 24430 ft 408 kts 264°
2026-05-07 12:00 35.62311 138.32684 24723 ft 409 kts 264°
2026-05-07 12:00 35.62124 138.29185 25042 ft 410 kts 264°
2026-05-07 12:00 35.61940 138.25669 25340 ft 411 kts 264°
2026-05-07 12:01 35.61753 138.22160 25620 ft 412 kts 264°
2026-05-07 12:01 35.61558 138.18630 25892 ft 415 kts 264°
2026-05-07 12:01 35.61359 138.15079 26047 ft 419 kts 264°
2026-05-07 12:01 35.61152 138.11470 26184 ft 424 kts 264°
2026-05-07 12:02 35.60947 138.07887 26316 ft 429 kts 264°
2026-05-07 12:02 35.60738 138.04206 26439 ft 434 kts 264°
2026-05-07 12:02 35.60527 138.00483 26574 ft 438 kts 264°
2026-05-07 12:02 35.60311 137.96730 26702 ft 442 kts 264°
2026-05-07 12:03 35.60093 137.92930 26818 ft 447 kts 264°
2026-05-07 12:03 35.59873 137.89105 26933 ft 451 kts 264°
2026-05-07 12:03 35.59649 137.85242 27037 ft 454 kts 264°
2026-05-07 12:03 35.59421 137.81356 27139 ft 458 kts 264°
2026-05-07 12:04 35.59269 137.78774 27302 ft 458 kts 264°
2026-05-07 12:04 35.59017 137.74881 27731 ft 454 kts 263°
2026-05-07 12:04 35.58736 137.71015 28016 ft 455 kts 263°
2026-05-07 12:04 35.58439 137.67142 28284 ft 455 kts 262°
2026-05-07 12:05 35.58043 137.62023 28835 ft 452 kts 262°
2026-05-07 12:05 35.57844 137.59430 29174 ft 449 kts 262°
2026-05-07 12:05 35.57555 137.55673 29673 ft 446 kts 262°
2026-05-07 12:05 35.57055 137.51936 30149 ft 442 kts 255°
2026-05-07 12:06 35.56344 137.48270 30579 ft 439 kts 254°
2026-05-07 12:06 35.55583 137.44643 30994 ft 437 kts 253°
2026-05-07 12:06 35.54794 137.41035 31413 ft 436 kts 253°
2026-05-07 12:06 35.53995 137.37442 31840 ft 435 kts 253°
2026-05-07 12:07 35.53196 137.33861 32260 ft 434 kts 253°
2026-05-07 12:07 35.52412 137.30337 32693 ft 433 kts 253°
2026-05-07 12:07 35.51622 137.26777 33133 ft 431 kts 253°
2026-05-07 12:07 35.50836 137.23224 33578 ft 430 kts 253°
2026-05-07 12:08 35.50053 137.19683 34019 ft 429 kts 253°
2026-05-07 12:08 35.49268 137.16148 34343 ft 430 kts 253°
2026-05-07 12:08 35.48475 137.12581 34487 ft 435 kts 253°
2026-05-07 12:08 35.47673 137.08971 34621 ft 440 kts 253°
2026-05-07 12:09 35.46862 137.05326 34752 ft 445 kts 253°
2026-05-07 12:09 35.46042 137.01642 34876 ft 450 kts 253°
2026-05-07 12:09 35.45211 136.97914 35001 ft 454 kts 253°
2026-05-07 12:09 35.44386 136.94216 35199 ft 456 kts 253°
2026-05-07 12:10 35.43547 136.90462 35483 ft 456 kts 253°
2026-05-07 12:10 35.42708 136.86712 35805 ft 455 kts 253°
2026-05-07 12:10 35.41868 136.82969 35922 ft 453 kts 253°
2026-05-07 12:11 35.40199 136.75547 35933 ft 449 kts 253°
2026-05-07 12:11 35.38539 136.68193 35934 ft 449 kts 253°
2026-05-07 12:12 35.36871 136.60825 35932 ft 448 kts 253°
2026-05-07 12:12 35.35211 136.53516 35936 ft 447 kts 253°
2026-05-07 12:13 35.33546 136.46187 35928 ft 446 kts 253°
2026-05-07 12:13 35.31870 136.38874 35929 ft 445 kts 253°
2026-05-07 12:14 35.30208 136.31628 35931 ft 446 kts 253°
2026-05-07 12:14 35.28529 136.24301 35930 ft 445 kts 253°
2026-05-07 12:15 35.26847 136.16999 35932 ft 445 kts 253°
2026-05-07 12:15 35.25162 136.09710 35932 ft 445 kts 253°
2026-05-07 12:16 35.23484 136.02472 35934 ft 445 kts 252°
2026-05-07 12:16 35.21790 135.95184 35928 ft 444 kts 252°
2026-05-07 12:17 35.20095 135.87913 35933 ft 444 kts 252°
2026-05-07 12:17 35.18392 135.80638 35931 ft 444 kts 252°
2026-05-07 12:18 35.16898 135.73354 35937 ft 445 kts 256°
2026-05-07 12:18 35.15720 135.65910 35930 ft 445 kts 257°
2026-05-07 12:19 35.14570 135.58476 35941 ft 445 kts 257°
2026-05-07 12:19 35.13360 135.51058 35938 ft 445 kts 256°
2026-05-07 12:20 35.12106 135.43648 35937 ft 445 kts 256°
2026-05-07 12:20 35.10845 135.36287 35943 ft 445 kts 256°
2026-05-07 12:21 35.09574 135.28892 35936 ft 445 kts 256°
2026-05-07 12:21 35.08294 135.21478 35943 ft 445 kts 256°
2026-05-07 12:22 35.07016 135.14078 35938 ft 445 kts 256°
2026-05-07 12:22 35.05741 135.06736 35936 ft 445 kts 256°
2026-05-07 12:23 35.04452 134.99331 35944 ft 445 kts 256°
2026-05-07 12:23 35.03163 134.91932 35934 ft 445 kts 256°
2026-05-07 12:24 35.01867 134.84552 35939 ft 445 kts 256°
2026-05-07 12:24 35.00574 134.77210 35940 ft 445 kts 256°
2026-05-07 12:25 34.99272 134.69826 35944 ft 444 kts 257°
2026-05-07 12:25 34.97905 134.62469 35946 ft 444 kts 255°
2026-05-07 12:26 34.96448 134.55195 35956 ft 444 kts 255°
2026-05-07 12:26 34.94971 134.47879 35948 ft 444 kts 255°
2026-05-07 12:27 34.93507 134.40559 35950 ft 443 kts 255°
2026-05-07 12:27 34.92065 134.33305 35948 ft 443 kts 256°
2026-05-07 12:28 34.90608 134.25989 35934 ft 442 kts 256°
2026-05-07 12:28 34.89150 134.18717 35945 ft 441 kts 256°
2026-05-07 12:29 34.87698 134.11498 35936 ft 441 kts 256°
2026-05-07 12:29 34.86254 134.04341 35936 ft 441 kts 255°
2026-05-07 12:30 34.84786 133.97089 35936 ft 441 kts 255°
2026-05-07 12:30 34.83316 133.89850 35937 ft 440 kts 255°
2026-05-07 12:31 34.81849 133.82643 35934 ft 440 kts 255°
2026-05-07 12:31 34.80332 133.75418 35935 ft 441 kts 255°
2026-05-07 12:32 34.78793 133.68190 35937 ft 441 kts 255°
2026-05-07 12:32 34.77253 133.60963 35931 ft 441 kts 255°
2026-05-07 12:33 34.74954 133.50149 35942 ft 442 kts 255°
2026-05-07 12:33 34.73408 133.42908 35937 ft 442 kts 255°
2026-05-07 12:34 34.71858 133.35671 35940 ft 442 kts 255°
2026-05-07 12:34 34.70313 133.28468 35925 ft 442 kts 255°
2026-05-07 12:35 34.68754 133.21221 35935 ft 443 kts 255°
2026-05-07 12:35 34.67189 133.13982 35927 ft 443 kts 255°
2026-05-07 12:36 34.65618 133.06741 35926 ft 443 kts 255°
2026-05-07 12:36 34.64044 132.99502 35933 ft 443 kts 255°
2026-05-07 12:37 34.62475 132.92316 35930 ft 443 kts 255°
2026-05-07 12:37 34.60895 132.85094 35928 ft 443 kts 255°
2026-05-07 12:38 34.59308 132.77866 35935 ft 442 kts 255°
2026-05-07 12:38 34.57714 132.70632 35926 ft 442 kts 255°
2026-05-07 12:39 34.56122 132.63424 35924 ft 442 kts 255°
2026-05-07 12:39 34.54535 132.56261 35928 ft 442 kts 255°
2026-05-07 12:40 34.52935 132.49059 35932 ft 442 kts 255°
2026-05-07 12:40 34.51331 132.41868 35934 ft 442 kts 255°
2026-05-07 12:41 34.49718 132.34656 35923 ft 442 kts 255°
2026-05-07 12:41 34.48116 132.27514 35926 ft 441 kts 257°
2026-05-07 12:42 34.46666 132.20288 35934 ft 440 kts 259°
2026-05-07 12:42 34.45271 132.13047 35936 ft 440 kts 259°
2026-05-07 12:43 34.43801 132.05878 35342 ft 435 kts 258°
2026-05-07 12:43 34.43019 132.02322 34464 ft 439 kts 257°
2026-05-07 12:43 34.42213 131.98786 33975 ft 445 kts 257°
2026-05-07 12:44 34.41376 131.95156 33794 ft 450 kts 257°
2026-05-07 12:44 34.40524 131.91484 33974 ft 454 kts 257°
2026-05-07 12:44 34.38820 131.84103 33564 ft 453 kts 256°
2026-05-07 12:45 34.37967 131.80415 33125 ft 454 kts 256°
2026-05-07 12:45 34.37109 131.76722 32693 ft 455 kts 256°
2026-05-07 12:45 34.36264 131.73080 32128 ft 457 kts 256°
2026-05-07 12:45 34.35398 131.69360 31498 ft 459 kts 256°
2026-05-07 12:46 34.34528 131.65634 30874 ft 460 kts 256°
2026-05-07 12:46 34.33658 131.61919 30228 ft 455 kts 256°
2026-05-07 12:46 34.32805 131.58278 29450 ft 448 kts 256°
2026-05-07 12:46 34.31957 131.54655 28670 ft 446 kts 255°
2026-05-07 12:47 34.31117 131.51071 27881 ft 441 kts 255°
2026-05-07 12:47 34.30295 131.47569 27130 ft 434 kts 255°
2026-05-07 12:47 34.29475 131.44083 26401 ft 427 kts 255°
2026-05-07 12:47 34.28666 131.40650 25696 ft 423 kts 255°
2026-05-07 12:48 34.27861 131.37251 24987 ft 414 kts 255°
2026-05-07 12:48 34.27076 131.33926 24305 ft 409 kts 255°
2026-05-07 12:48 34.26301 131.30641 23652 ft 404 kts 255°
2026-05-07 12:48 34.25536 131.27398 22884 ft 399 kts 255°
2026-05-07 12:49 34.24780 131.24196 22113 ft 394 kts 255°
2026-05-07 12:49 34.24041 131.21073 21379 ft 386 kts 255°
2026-05-07 12:49 34.23324 131.18051 20838 ft 365 kts 255°
2026-05-07 12:49 34.22628 131.15107 20315 ft 362 kts 255°
2026-05-07 12:50 34.21938 131.12185 19805 ft 359 kts 255°
2026-05-07 12:50 34.21253 131.09284 19291 ft 357 kts 254°
2026-05-07 12:50 34.20571 131.06405 18784 ft 354 kts 254°
2026-05-07 12:50 34.19900 131.03580 18304 ft 353 kts 254°
2026-05-07 12:51 34.19041 131.00745 17992 ft 365 kts 248°
2026-05-07 12:51 34.18021 130.97918 17821 ft 368 kts 247°
2026-05-07 12:51 34.17329 130.96045 17583 ft 366 kts 246°
2026-05-07 12:51 34.15908 130.92424 17037 ft 340 kts 245°
2026-05-07 12:52 34.15223 130.90778 16732 ft 322 kts 245°
2026-05-07 12:52 34.13878 130.87711 16145 ft 308 kts 244°
2026-05-07 12:52 34.13178 130.86186 15852 ft 306 kts 243°
2026-05-07 12:52 34.12148 130.83972 15332 ft 295 kts 243°
2026-05-07 12:53 34.11158 130.81864 14754 ft 284 kts 243°
2026-05-07 12:53 34.10143 130.79701 14190 ft 307 kts 243°
2026-05-07 12:53 34.09100 130.77482 13605 ft 309 kts 243°
2026-05-07 12:53 34.08047 130.75250 12952 ft 296 kts 243°
2026-05-07 12:54 34.07053 130.73149 12315 ft 282 kts 243°
2026-05-07 12:54 34.06097 130.71132 11698 ft 273 kts 243°
2026-05-07 12:54 34.05164 130.69166 11088 ft 268 kts 243°
2026-05-07 12:54 34.04243 130.67227 10564 ft 265 kts 243°
2026-05-07 12:55 34.03328 130.65297 10160 ft 264 kts 243°
2026-05-07 12:55 34.02423 130.63390 9761 ft 264 kts 243°
2026-05-07 12:55 34.01511 130.61462 9316 ft 266 kts 243°
2026-05-07 12:55 34.00598 130.59517 8890 ft 265 kts 243°
2026-05-07 12:56 33.99697 130.57590 8526 ft 262 kts 243°
2026-05-07 12:56 33.98812 130.55692 8178 ft 258 kts 243°
2026-05-07 12:56 33.97938 130.53811 7835 ft 255 kts 243°
2026-05-07 12:56 33.97087 130.51970 7485 ft 253 kts 243°
2026-05-07 12:57 33.96231 130.50115 7149 ft 253 kts 243°
2026-05-07 12:57 33.95380 130.48256 6819 ft 253 kts 243°
2026-05-07 12:57 33.94535 130.46400 6477 ft 252 kts 243°
2026-05-07 12:57 33.93696 130.44541 6166 ft 251 kts 243°
2026-05-07 12:58 33.92877 130.42716 6053 ft 251 kts 243°
2026-05-07 12:58 33.92052 130.40864 6052 ft 251 kts 244°
2026-05-07 12:58 33.91227 130.39011 6057 ft 251 kts 244°
2026-05-07 12:58 33.90407 130.37170 5918 ft 245 kts 244°
2026-05-07 12:59 33.89600 130.35355 5521 ft 245 kts 243°
2026-05-07 12:59 33.88610 130.33718 5053 ft 247 kts 225°
2026-05-07 12:59 33.87233 130.32494 4727 ft 244 kts 215°
2026-05-07 12:59 33.85788 130.31439 4376 ft 242 kts 214°
2026-05-07 13:00 33.84341 130.30415 3987 ft 241 kts 213°
2026-05-07 13:00 33.82893 130.29395 3617 ft 240 kts 213°
2026-05-07 13:00 33.81454 130.28386 3248 ft 238 kts 214°
2026-05-07 13:00 33.80042 130.27398 2879 ft 237 kts 214°
2026-05-07 13:01 33.78588 130.26463 2465 ft 239 kts 206°
2026-05-07 13:01 33.76998 130.25861 2115 ft 239 kts 198°
2026-05-07 13:01 33.75379 130.25426 1999 ft 239 kts 196°
2026-05-07 13:01 33.73732 130.25057 2000 ft 240 kts 194°
2026-05-07 13:02 33.72077 130.24726 1998 ft 240 kts 194°
2026-05-07 13:02 33.70437 130.24506 1991 ft 243 kts 182°
2026-05-07 13:02 33.68786 130.25021 2000 ft 250 kts 158°
2026-05-07 13:02 33.67397 130.26298 2011 ft 254 kts 139°
2026-05-07 13:03 33.66230 130.27895 2000 ft 253 kts 134°
2026-05-07 13:03 33.65115 130.29528 2000 ft 252 kts 134°
2026-05-07 13:03 33.64004 130.31162 1997 ft 252 kts 134°
2026-05-07 13:03 33.62889 130.32797 1997 ft 252 kts 134°
2026-05-07 13:04 33.61779 130.34424 1998 ft 252 kts 134°
2026-05-07 13:04 33.60690 130.36013 1990 ft 244 kts 134°
2026-05-07 13:04 33.59663 130.37524 1996 ft 221 kts 133°
2026-05-07 13:04 33.58736 130.38912 1983 ft 205 kts 133°
2026-05-07 13:05 33.57862 130.40211 1994 ft 197 kts 133°
2026-05-07 13:05 33.57043 130.41440 1999 ft 180 kts 134°
2026-05-07 13:05 33.56293 130.42581 1986 ft 170 kts 134°
2026-05-07 13:05 33.55561 130.43690 1996 ft 169 kts 134°
2026-05-07 13:06 33.54837 130.44772 1988 ft 160 kts 134°
2026-05-07 13:06 33.54189 130.45770 1983 ft 145 kts 133°
2026-05-07 13:06 33.54009 130.46878 1940 ft 140 kts 66°
2026-05-07 13:06 33.54876 130.47430 1997 ft 158 kts
2026-05-07 13:07 33.55953 130.46939 1409 ft 176 kts 328°
2026-05-07 13:07 33.56933 130.46238 1402 ft 152 kts 330°
2026-05-07 13:07 33.57811 130.45625 1098 ft 144 kts 332°
2026-05-07 13:07 33.58708 130.45152 933 ft 123 kts 348°
2026-05-07 13:08 33.59508 130.45225 1610 ft 123 kts 20°
2026-05-07 13:08 33.60452 130.45409 1969 ft 146 kts 348°
2026-05-07 13:08 33.61295 130.44817 2093 ft 139 kts 318°
2026-05-07 13:08 33.62029 130.44065 2453 ft 140 kts 319°
2026-05-07 13:09 33.62830 130.43291 2834 ft 161 kts 320°
2026-05-07 13:09 33.63796 130.42409 3235 ft 187 kts 321°
2026-05-07 13:09 33.64936 130.41423 3608 ft 215 kts 322°
2026-05-07 13:09 33.66169 130.40204 3930 ft 241 kts 314°
2026-05-07 13:10 33.67455 130.38862 4005 ft 248 kts 324°
2026-05-07 13:10 33.68957 130.37874 3997 ft 249 kts 333°
2026-05-07 13:10 33.70531 130.36977 3999 ft 251 kts 333°
2026-05-07 13:10 33.72117 130.36090 4000 ft 251 kts 334°
2026-05-07 13:11 33.73703 130.35204 3999 ft 251 kts 334°
2026-05-07 13:11 33.75292 130.34317 3999 ft 251 kts 334°
2026-05-07 13:11 33.76879 130.33436 3998 ft 251 kts 334°
2026-05-07 13:11 33.78476 130.32554 4002 ft 251 kts 334°
2026-05-07 13:12 33.80066 130.31676 4000 ft 251 kts 334°
2026-05-07 13:12 33.81638 130.30806 4000 ft 251 kts 333°
2026-05-07 13:12 33.83227 130.29930 3999 ft 251 kts 334°
2026-05-07 13:12 33.84813 130.29059 3999 ft 251 kts 334°
2026-05-07 13:13 33.86402 130.28182 3998 ft 250 kts 334°
2026-05-07 13:13 33.87991 130.27307 3997 ft 251 kts 333°
2026-05-07 13:13 33.89583 130.26437 3999 ft 251 kts 334°
2026-05-07 13:13 33.91171 130.25571 4007 ft 250 kts 334°
2026-05-07 13:14 33.92760 130.24706 4002 ft 250 kts 334°
2026-05-07 13:14 33.94325 130.23856 3994 ft 250 kts 333°
2026-05-07 13:14 33.95911 130.22996 4006 ft 250 kts 334°
2026-05-07 13:14 33.97500 130.22134 4002 ft 250 kts 334°
2026-05-07 13:15 33.99095 130.21281 4003 ft 251 kts 336°
2026-05-07 13:15 34.00818 130.20936 4004 ft 255 kts
2026-05-07 13:15 34.02457 130.21716 3998 ft 259 kts 38°
2026-05-07 13:15 34.03536 130.23422 4004 ft 258 kts 71°
2026-05-07 13:16 34.04021 130.25514 3989 ft 260 kts 82°
2026-05-07 13:16 34.04357 130.27674 4005 ft 262 kts 87°
2026-05-07 13:16 34.04192 130.29774 4004 ft 252 kts 117°
2026-05-07 13:16 34.03177 130.31404 3987 ft 240 kts 150°
2026-05-07 13:17 34.01659 130.32046 4001 ft 229 kts 184°
2026-05-07 13:17 34.00119 130.31730 3917 ft 221 kts 201°
2026-05-07 13:17 33.98686 130.31174 3773 ft 211 kts 203°
2026-05-07 13:17 33.97293 130.30602 3399 ft 214 kts 204°
2026-05-07 13:18 33.95875 130.30014 3170 ft 223 kts 204°
2026-05-07 13:18 33.94392 130.29396 3039 ft 226 kts 204°
2026-05-07 13:18 33.92908 130.28778 2998 ft 226 kts 204°
2026-05-07 13:18 33.91421 130.28159 2997 ft 226 kts 204°
2026-05-07 13:19 33.89935 130.27541 2999 ft 226 kts 204°
2026-05-07 13:19 33.88445 130.26919 3000 ft 226 kts 204°
2026-05-07 13:19 33.86960 130.26298 2999 ft 226 kts 204°
2026-05-07 13:19 33.85467 130.25672 2997 ft 227 kts 204°
2026-05-07 13:20 33.83973 130.25045 2999 ft 227 kts 204°
2026-05-07 13:20 33.82484 130.24420 3001 ft 227 kts 204°
2026-05-07 13:20 33.81010 130.23799 3000 ft 227 kts 204°
2026-05-07 13:20 33.79516 130.23168 2999 ft 227 kts 204°
2026-05-07 13:21 33.78026 130.22537 2998 ft 228 kts 204°
2026-05-07 13:21 33.76528 130.21899 2998 ft 228 kts 204°
2026-05-07 13:21 33.75032 130.21262 2998 ft 228 kts 204°
2026-05-07 13:21 33.73534 130.20628 3000 ft 228 kts 204°
2026-05-07 13:22 33.72037 130.19998 3003 ft 227 kts 204°
2026-05-07 13:22 33.70536 130.19471 2984 ft 230 kts 192°
2026-05-07 13:22 33.68914 130.19637 2823 ft 238 kts 167°
2026-05-07 13:22 33.67481 130.20663 2629 ft 245 kts 141°
2026-05-07 13:23 33.66443 130.22281 2443 ft 244 kts 127°
2026-05-07 13:23 33.65614 130.24027 2236 ft 237 kts 124°
2026-05-07 13:23 33.64838 130.25740 2045 ft 230 kts 123°
2026-05-07 13:23 33.64093 130.27399 1996 ft 224 kts 123°
2026-05-07 13:24 33.63351 130.29037 1995 ft 223 kts 123°
2026-05-07 13:24 33.62602 130.30667 1995 ft 223 kts 124°
2026-05-07 13:24 33.61859 130.32270 1995 ft 223 kts 123°
2026-05-07 13:24 33.61107 130.33909 1996 ft 223 kts 123°
2026-05-07 13:25 33.60263 130.35465 1940 ft 217 kts 135°
2026-05-07 13:25 33.59300 130.36788 1884 ft 205 kts 136°
2026-05-07 13:25 33.58354 130.38046 1848 ft 199 kts 138°
2026-05-07 13:25 33.57436 130.39246 1732 ft 188 kts 137°
2026-05-07 13:26 33.56606 130.40349 1759 ft 177 kts 135°
2026-05-07 13:26 33.55801 130.41456 1800 ft 173 kts 135°
2026-05-07 13:26 33.55031 130.42468 1774 ft 157 kts 137°
2026-05-07 13:26 33.54314 130.43394 1685 ft 144 kts 136°
2026-05-07 13:27 33.53654 130.44260 1630 ft 140 kts 136°
2026-05-07 13:27 33.52965 130.45096 1323 ft 144 kts 138°
2026-05-07 13:27 33.52406 130.46022 1256 ft 133 kts 105°
2026-05-07 13:27 33.52717 130.47078 1329 ft 147 kts 46°
2026-05-07 13:28 33.53554 130.47874 1050 ft 156 kts 28°
2026-05-07 13:28 33.54554 130.47975 905 ft 142 kts 338°
2026-05-07 13:28 33.55393 130.47328 568 ft 145 kts 322°
2026-05-07 13:28 33.56229 130.46666 299 ft 140 kts 329°
2026-05-07 13:29 33.57049 130.46109 149 ft 133 kts 330°
2026-05-07 13:29 33.57863 130.45566 49 ft 132 kts 330°
2026-05-07 13:29 33.58557 130.45090 40 ft 99 kts 330°
2026-05-07 13:29 33.59070 130.44741 31 ft 74 kts 330°
2026-05-07 13:30 33.59353 130.44552 31 ft 34 kts 333°
2026-05-07 13:30 33.59574 130.44487 31 ft 27 kts 359°
2026-05-07 13:30 33.59614 130.44487 31 ft 11 kts
2026-05-07 13:30 33.59676 130.44528 31 ft 9 kts 46°
2026-05-07 13:31 33.59716 130.44589 31 ft 9 kts 36°
2026-05-07 13:31 33.59768 130.44587 31 ft 7 kts 335°
2026-05-07 13:31 33.59804 130.44594 31 ft 6 kts 32°
2026-05-07 13:31 33.59826 130.44622 31 ft 4 kts 50°
2026-05-07 13:32 33.59842 130.44650 31 ft 0 kts 57°
2026-05-07 13:32 33.59843 130.44652 31 ft 0 kts 57°